• Join FlightAware (Why Join?)
  • Login
  • US Flag 
11:27AM EDT


 

Airport Tracker/Info


-or-


 

Live Flight TrackerFlight Track Log ✈ N8684P ✈ 20-Jan-2014 ✈ KDVT - KSOW

Flight Track Log - Related Links

Times and Time Zones

All times are in EST time to prevent confusion due to time zone crossing. See the N8684P flight status page for this flight to view local times or setup timezone preferences in your user account.

Time Position Orientation Groundspeed Altitude Reporting Facility
EST Latitude Longitude Course Direction KTS MPH feet Rate Location/Type
10:56AM 33.7833 -111.8000 79° East 144 166 8,100  Level Phoenix TRACON
10:57AM 33.7867 -111.7789 79° East 146 168 8,000 -60 Descending Albuquerque Center
10:58AM 33.8036 -111.7294 68° East 161 185 8,000 240 Level Albuquerque Center
10:59AM 33.8183 -111.6831 69° East 151 174 8,600 660 Climbing Albuquerque Center
11:00AM 33.8350 -111.6344 68° East 132 152 9,400 420 Climbing Albuquerque Center
11:01AM 33.8483 -111.5892 70° East 145 167 9,500  Climbing Albuquerque Center
11:02AM 33.8650 -111.5400 68° East 159 183 9,500  Level Albuquerque Center
11:03AM 33.8811 -111.4897 69° East 162 186 9,500  Level Albuquerque Center
11:04AM 33.8969 -111.4394 69° East 161 185 9,500  Level Albuquerque Center
11:05AM 33.9156 -111.3800 69° East 159 183 9,500  Level Albuquerque Center
11:06AM 33.9294 -111.3294 72° East 160 184 9,500  Level Albuquerque Center
11:07AM 33.9339 -111.2756 84° East 162 186 9,500  Level Albuquerque Center
11:08AM 33.9406 -111.2222 81° East 161 185 9,500  Level Albuquerque Center
11:09AM 33.9458 -111.1692 83° East 160 184 9,500  Level Albuquerque Center
11:10AM 33.9525 -111.1164 81° East 160 184 9,500  Level Albuquerque Center
11:11AM 33.9594 -111.0522 83° East 161 185 9,500  Level Albuquerque Center
11:12AM 33.9656 -110.9992 82° East 161 185 9,500  Level Albuquerque Center
11:13AM 33.9711 -110.9461 83° East 161 185 9,500  Level Albuquerque Center
11:14AM 33.9769 -110.8936 82° East 160 184 9,500  Level Albuquerque Center
11:15AM 33.9825 -110.8397 83° East 160 184 9,500  Level Albuquerque Center
11:16AM 33.9883 -110.7864 82° East 161 185 9,500  Level Albuquerque Center
11:17AM 33.9953 -110.7231 82° East 160 184 9,500 -60 Level Albuquerque Center
11:18AM 33.9994 -110.6692 85° East 161 185 9,400 -120 Descending Albuquerque Center